Zurück zum Katalog

STARLINK-35626

AktivKommunikationVLEO
NORAD 66233·PAYLOAD·🇺🇸 United States

Gestartet Oct 28, 2025 von Vandenberg Space Force Base

Loading…

Nächste Überflüge (nächste 24 Stunden)

TLE

AktuellSource: CelesTrak SupGP

Epoche: Sep 14, 2026, 14:54 UTC

1 66233C 25244AD  26257.62131944 -.00044842  00000+0 -13245-2 0  2576
2 66233  53.1587  71.0678 0001096  89.3096 271.9798 15.34422546    11

Verfolge STARLINK-35626 in Echtzeit mit AllMySat

Download on the App Store